082  
NZUS99 KIND 191709  
HRRIND  
 
WEATHER ROUNDUP FOR INDIANA AND SURROUNDING STATES  
NATIONAL WEATHER SERVICE INDIANAPOLIS IN  
100 PM EDT FRI OCT 19 2018  
   
..INDIANA
 
 
 
CITY SKY/WX TMP DP RH WIND PRES REMARKS  
INDIANAPOLIS CLOUDY 53 34 48 SW14 30.17F  
EAGLE CREEK PTSUNNY 54 35 48 VRB5 30.17F  
ZIONSVILLE CLOUDY 51 34 52 S13 30.17F  
FISHERS PTSUNNY 54 39 58 SW7 30.17F  
ANDERSON SUNNY 54 36 50 S12G17 30.18F  
MOUNT COMFORT FAIR 54 39 58 SW10 30.18F  
GREENWOOD PTSUNNY 53 35 50 W7 30.19F  
SHELBYVILLE FAIR 54 36 50 SW10 30.18F  

 
 
CITY SKY/WX TMP DP RH WIND PRES REMARKS  
LAFAYETTE CLOUDY 52 36 54 S10 30.13F  
KOKOMO PTSUNNY 54 36 50 SW17 30.14F  
FRANKFORT CLOUDY 55 35 46 SW10G17 30.15F  
CRAWFORDSVILLE CLOUDY 49 35 57 S15 30.15F  
MUNCIE FAIR 55 34 45 SW15 30.16F  
GREENCASTLE CLOUDY 50 34 53 CALM 30.18F  
TERRE HAUTE CLOUDY 50 39 66 S8 30.17F  
BLOOMINGTON PTSUNNY 53 37 54 VRB5 30.20F  
COLUMBUS PTSUNNY 54 32 43 SW10 30.20F  
BEDFORD PTSUNNY 54 39 58 W3 30.20F  
SEYMOUR PTSUNNY 57 N/A N/A S6 30.19F  
NORTH VERNON FAIR 54 36 50 SW8 30.20F  

 
 
CITY SKY/WX TMP DP RH WIND PRES REMARKS  
GARY CLOUDY 57 34 41 SW24 30.05F  
VALPARAISO CLOUDY 56 34 43 SW17 30.07F  
LA PORTE CLOUDY 51 36 55 SW9G20 30.08F  
MICHIGAN CITY CLOUDY 52 32 46 S14 30.07F  
SOUTH BEND PTSUNNY 51 33 50 SW13G24 30.08F  
ELKHART FAIR 54 34 47 SW10G18 30.08F  
GOSHEN FAIR 54 37 52 SW18G26 30.09F  
ANGOLA FAIR 54 36 50 SW22 30.08F  
KENDALLVILLE FAIR 53 30 41 SW20 30.10F  
AUBURN FAIR 54 36 50 SW9G18 30.11F  
RENSSELAER CLOUDY 52 36 54 S15G22 30.09F  
KNOX CLOUDY 54 34 47 SW13G22 30.08F  
ROCHESTER FAIR 54 34 47 SW15G23 30.11F  
WARSAW FAIR 52 34 50 SW9G24 30.11F  
FORT WAYNE PTSUNNY 54 36 50 SW18G32 30.13F  
MONTICELLO CLOUDY 51 35 52 S14 30.11F  
LOGANSPORT CLOUDY 52 36 54 SW15 30.13F  
PERU/GRISSOM CLOUDY 53 36 54 SW16 30.11F  
HUNTINGTON FAIR 52 33 46 SW13G24 30.14F  
MARION FAIR 53 38 56 SW17 30.16S  
RICHMOND FAIR 52 34 50 SW9 30.17F HAZE  
WASHINGTON FAIR 54 35 49 SW5 30.20F  
FRENCH LICK FAIR 55 28 35 SW7 30.20F  
MADISON FAIR 61 36 39 SW8 30.21F  
HUNTINGBURG FAIR 59 41 51 S12 30.21F  
EVANSVILLE FAIR 58 41 53 SW7 30.21F  

 
   
..ILLINOIS
 
 
 
CITY SKY/WX TMP DP RH WIND PRES REMARKS  
CHICAGO LGT RAIN 50 41 71 S14G23 30.01F  
MOLINE CLOUDY 54 45 71 SW13G22 30.00F  
ROCKFORD CLOUDY 51 40 65 SW7 29.99F  
KANKAKEE CLOUDY 54 36 49 SW13G21 30.08F  
PEORIA CLOUDY 53 41 63 SW12 30.06F  
BLOOMINGTON FAIR 55 39 54 SW18 30.07F  
CHAMPAIGN CLOUDY 54 36 50 S18 30.12F  
RANTOUL CLOUDY 55 39 54 SW12 30.11F  
DANVILLE CLOUDY 52 37 57 S14 30.10F  
QUINCY CLOUDY 57 46 66 SW13 30.07F  
SPRINGFIELD LGT RAIN 54 43 66 SW6G17 30.11F  
DECATUR CLOUDY 55 37 50 SW13G25 30.12F  
MATTOON CLOUDY 51 37 58 S10 30.15F  
PARIS CLOUDY 52 37 56 S10 30.15F  
EFFINGHAM FAIR 52 41 67 S6 30.18F  
ROBINSON CLOUDY 51 39 61 S7 30.20F  
OLNEY CLOUDY 52 37 56 S8 30.18F  
LAWRENCEVILLE FAIR 55 38 52 S9 30.20F  
MOUNT VERNON CLOUDY 55 40 56 SW12 30.18F  
FAIRFIELD PTSUNNY 57 38 50 SW5 30.19F  
MOUNT CARMEL PTSUNNY 55 39 55 SW7 30.19F  
CARMI CLOUDY 61 39 44 W7 30.20F  

 
   
..KENTUCKY
 
 
 
CITY SKY/WX TMP DP RH WIND PRES REMARKS  
LOUISVILLE PTSUNNY 63 41 44 SW9 30.20F  
PADUCAH PTSUNNY 65 41 41 SW9 30.21F  
OWENSBORO FAIR 62 40 44 SW9 30.21F  
FORT KNOX FAIR 64 40 40 SW12G18 30.21F  
LEXINGTON FAIR 63 46 54 SW8 30.20F  
BOWLING GREEN FAIR 68 46 45 SW12G21 30.22F  
JACKSON FAIR 62 47 57 CALM 30.22F  

 
   
..OHIO
 
 
 
CITY SKY/WX TMP DP RH WIND PRES REMARKS  
CINCINNATI PTSUNNY 57 38 48 SW13 30.18F  
DAYTON PTSUNNY 54 33 45 S15 30.17F  
TOLEDO FAIR 58 34 40 SW16G24 30.09F  
DEFIANCE FAIR 54 35 48 SW15G26 30.11F  
FINDLAY FAIR 57 35 43 SW17G23 30.11F  
LIMA FAIR 55 35 47 SW16G23 30.14F  
WRIGHT-PAT AFB PTSUNNY 57 33 41 S10 30.16F  
COLUMBUS PTSUNNY 55 32 41 S13 30.18F  
CLEVELAND PTSUNNY 56 33 42 SW15G25 30.12F  

 
   
..MICHIGAN
 
 
 
CITY SKY/WX TMP DP RH WIND PRES REMARKS  
DETROIT PTSUNNY 56 34 43 SW15G25 30.06F  
GRAND RAPIDS CLOUDY 54 37 52 SW21 30.01F  
LANSING FAIR 53 34 48 SW15G26 30.02F  
KALAMAZOO FAIR 54 34 46 SW16 30.05F  
BATTLE CREEK FAIR 54 34 46 SW21G30 30.05F  
MARSHALL FAIR 56 29 35 SW13G20 30.03F  
JACKSON FAIR 56 33 42 SW16G24 30.03F  
BENTON HARBOR PTSUNNY 53 34 48 SW14G29 30.05F  
STURGIS FAIR 56 33 41 SW20 30.06F  
COLDWATER FAIR 55 26 32 SW17 30.06F  
HILLSDALE FAIR 55 30 38 SW9G22 30.05F  

 
   
..OTHER LOCATIONS
 
 
 
CITY SKY/WX TMP DP RH WIND PRES REMARKS  
SAINT LOUIS MO LGT RAIN 55 40 56 SW17 30.16F  
CAPE GIRARDEAU CLOUDY 59 40 49 SW10 30.22F  
MILWAUKEE WI CLOUDY 53 41 63 SW13 29.94F  
NASHVILLE TN FAIR 70 50 49 S10 30.23F  

 
 
 
 
CLICK HERE TO GO TO PREVIOUS BULLETINS.

The Nexlab IN Page Main Text Page